{"data":{"norad_id":51963,"epoch":"2026-05-24T22:30:08.735040Z","epoch_age_seconds":94586,"freshness":"FRESH","line1":"1 51963U 22025H   26144.93760110  .00000459  00000+0  26563-4 0  9992","line2":"2 51963  53.1613  18.9313 0001255  89.1331 270.9815 15.31704877232853","mean_motion":15.31704877,"eccentricity":0.0001255,"inclination_deg":53.1613,"raan_deg":18.9313,"arg_perigee_deg":89.1331,"mean_anomaly_deg":270.9815,"bstar":2.6563e-5,"rev_number":23285,"period_min":94.012888619927,"perigee_km":469.86592494262,"apogee_km":471.58498941938,"semimajor_km":6848.862457181,"source":"CELESTRAK","updated_at":"2026-05-25T13:38:16.992053Z"}}